Weather observations for the past three days for
La Paz International Airport
Metric (Imperial)
Date Time (mst) Wind (kph) Vis. (km) Weather Sky Cond. Temperature (ºC) Relative Humidity Wind Chill (°C) Heat Index (°C) Pressure Precipitation (cm)
Air Dwpt 6 hour altimeter (cm) sea level (mb) 1 hr 3 hr 6 hr
Max. Min.
01 19:40 S 7 16.09 Mostly Cloudy SCT030 BKN100 BKN200 27 25 89% 31 76.07 1013.7
01 18:40 S 7 16.09 Mostly Cloudy SCT030 BKN100 BKN200 27 25 89% 31 76 0.0
01 17:40 SE 6 16.09 Light Drizzle SCT030 BKN100 BKN200 27 25 89% 31 76 0.0
01 16:40 Calm 12.87 Mostly Cloudy SCT030 BKN100 BKN200 26 24 89% 28 76 1012.6 15.62
01 16:01 NW 7 9.66 Light Rain BKN030 26 24 89% 28 75.95 0.0
01 15:40 Calm 0.80 Rain BKN020 OVC030 25 24 94% 26 75.97 0.0
01 14:58 E 19 0.40 Heavy Rain BKN020 OVC030 27 25 89% 31 76 0.0
01 14:40 E 15 12.87 Rain BKN030CB BKN200 29 25 79% 35 75.92 0.0
01 14:16 W 7 12.87 Rain BKN030CB BKN200 31 25 70% 38 75.92 0.0
01 13:42 N 11 16.09 Mostly Cloudy SCT030CB BKN200 37 22 42% 42 75.87 1011.2
01 12:40 E 6 16.09 Mostly Cloudy BKN030 37 21 39% 41 75.97 0.0
01 11:40 Calm 16.09 Partly Cloudy SCT030 36 22 44% 41 76.02 0.0
01 10:40 N 4 16.09 A Few Clouds FEW030 FEW200 34 22 50% 38 76.07 1013.8
01 09:40 SE 7 16.09 Partly Cloudy SCT200 33 23 56% 38 76.07 0.0
01 08:40 S 6 16.09 A Few Clouds FEW100 FEW200 30 23 66% 34 76.1 0.0
01 07:51 SE 6 16.09 A Few Clouds FEW100 FEW200 28 24 79% 32 76.1 1014.0
01 06:40 SW 9 16.09 A Few Clouds FEW100 26 23 84% 28 76.02 0.0
01 05:53 SW 7 16.09 A Few Clouds FEW100 26 23 84% 28 76.02 0.0
31 22:40 S 6 12.87 Clear SKC 28 25 84% 33 76.07 1013.7
31 21:40 S 7 12.87 Clear SKC 28 24 79% 32 76.07 0.0
31 20:40 SW 6 12.87 A Few Clouds FEW200 28 24 79% 32 76.02 0.0
31 19:40 S 7 12.87 Partly Cloudy FEW100 SCT200 29 24 74% 34 75.97 1012.5
31 18:40 SW 7 16.09 Mostly Cloudy SCT100 BKN200 29 23 70% 33 75.97 0.0
31 17:40 S 7 16.09 Mostly Cloudy SCT100 BKN200 29 23 70% 33 75.95 0.0
31 15:40 SW 9 16.09 Mostly Cloudy FEW030 SCT100 BKN200 28 24 79% 32 75.95 0.0
31 14:40 S 30 9.66 Mostly Cloudy BKN030CB 30 24 70% 35 75.95 0.0
31 13:43 NE 19 16.09 A Few Clouds FEW030TCU FEW200 38 22 40% 43 75.87 1011.0
31 12:40 N 6 16.09 A Few Clouds FEW030 FEW200 38 23 42% 44 75.97 0.0
31 11:40 SW 4 16.09 A Few Clouds FEW030 FEW200 36 22 44% 41 76.05 0.0
31 10:40 S 15 16.09 A Few Clouds FEW030 FEW200 35 23 50% 41 76.07 1013.8
31 09:40 W 11 16.09 A Few Clouds FEW025 FEW100 34 22 50% 38 76.07 0.0
31 08:40 S 9 16.09 A Few Clouds FEW100 31 24 66% 37 76.07 0.0
31 07:40 S 9 16.09 A Few Clouds FEW080 30 24 70% 35 76.05 1013.2
31 06:44 S 11 16.09 A Few Clouds FEW080 27 24 84% 30 76.02 0.0
31 05:40 S 7 16.09 A Few Clouds FEW030 FEW080 28 24 79% 32 76 0.0
30 22:40 S 9 12.87 Clear SKC 29 25 79% 35 76.02 1013.1
30 21:40 S 9 12.87 Clear SKC 30 24 70% 35 76.02 0.0
30 20:40 S 11 12.87 Clear SKC 30 24 70% 35 75.97 0.0
30 19:40 SW 9 12.87 A Few Clouds FEW200 31 24 66% 37 75.92 1011.7
30 18:40 S 11 16.09 Partly Cloudy FEW030 FEW100 SCT200 32 24 63% 38 75.87 0.0
30 17:40 S 22 16.09 Partly Cloudy FEW030 FEW100 SCT200 33 24 59% 39 75.82 0.0
30 16:40 S 13 16.09 Mostly Cloudy FEW100 BKN200 33 23 56% 38 75.79 1009.9
30 15:40 S 9 16.09 Mostly Cloudy FEW030 SCT100 BKN200 31 20 52% 33 75.82 0.0
30 14:40 SW 20 16.09 Mostly Cloudy BKN030CB 32 20 49% 34 75.82 0.0
30 14:15 S 31 9.66 Blowing Sand FEW030CB SCT200 31 21 55% 34 75.84 0.0
30 13:41 N 13 16.09 A Few Clouds FEW030CB FEW200 37 24 47% 44 75.82 1010.3
30 12:41 N 13 16.09 A Few Clouds FEW030CB 36 23 47% 42 75.92 0.0
30 11:43 NW 9 16.09 A Few Clouds FEW025TCU FEW200 36 23 47% 42 76 0.0
30 10:40 N 6 16.09 A Few Clouds FEW025 FEW200 35 23 50% 41 76.07 1013.4
30 09:40 Calm 16.09 A Few Clouds FEW025 FEW200 34 23 53% 39 76.1 0.0
30 08:42 S 6 16.09 A Few Clouds FEW200 32 24 63% 38 76.1 0.0
30 07:40 S 7 16.09 A Few Clouds FEW100 FEW200 30 25 75% 36 76.1 1013.9
30 06:40 Calm 16.09 Partly Cloudy FEW025 FEW080 SCT200 28 25 84% 33 76.1 0.0
30 05:40 S 13 16.09 A Few Clouds FEW080 FEW200 27 25 89% 31 76.07 0.0
29 22:40 S 9 12.87 Partly Cloudy FEW030 FEW100 SCT200 29 25 79% 35 76.12 1014.4
29 21:40 S 9 12.87 Partly Cloudy FEW030 FEW100 SCT200 30 25 75% 36 76.1 0.0
29 20:40 SE 7 12.87 Partly Cloudy FEW030 FEW100 SCT200 31 25 70% 38 76.07 0.0
Date Time (mst) Wind (kph) Vis. (km) Weather Sky Cond. Air Dwpt Max. Min. Relative Humidity Wind Chill (°C) Heat Index (°C) altimeter (cm) sea level (mb) 1 hr 3 hr 6 hr
6 hour
Temperature (ºC) Pressure Precipitation (cm)